MET'MAP v2.0
soon released !

Expected late october,
this new version will be
more efficient, smarter,
and hosted on a brand new
server x3 powerfull...
...and still free !


Not compatible ?
Try the mobile version !

LOG IN : | Subscribe | Disclaimer | Who is Orbifly ? |
ICAO code :

TAF - LFSO Nancy / Ochey - 09 Jul 2020 17:34 UTC
Data Sources :     NOAA   


- Airport Elevation : 1106 ft
- No reported NOTAMs.


LFSO - Nancy / Ochey

Latest METAR recorded : 2020/07/09 15:00 LFSO 091500Z AUTO 27010KT CAVOK 30/13 Q1015 NOSIG
NO TAF


MET'MAP, your aeronautical weather chart ! - Copyright ORBIFLY December 2007

Programming & Development : Alexandra Zaïnal
Co-Developer : Marc-Olivier Méhu
Technical & hardware support : Manuel Goepfert
Concept & Financing : Baudouin d'Aumeries